SCP
0 0 0 0 0 0 0 0 0 0 0 0 0 0 0 0 0 0 0 0 0 0 0 0 0 0 0 0 0 0 0 0 0 0 0 0 0 0 0 0 0 0 0 0 0 0 0
0 0 0 0 0 0 0 0 0 0 0 0 0 0 0 0 0 0 0 0 0 0 0 0 0 0 0 0 0 0 0 0 0 0 0 0 0 0 0 0 0 0 0 0 0 0 0
0 0 0 0 0 0 0 0 0 0 0 0 0 0 0 0 0 0 0 0 0 0 0 0 0 0 -0 0 0 0 0 0 0 0 0 0 -0 -0 0 -0 0 0 0 0 0 0 0
0 0 0 0 0 0 0 0 0 0 0 0 0 0 0 0 0 0 0 0 0 0 0 0 0 0 0 0 0 -0 0 0 0 0 0 0 -0 -0 -0 0 -0 0 0 0 0 0 0
0 0 0 0 0 0 0 0 0 0 0 0 0 0 0 0 0 0 0 0 0 0 0 0 0 0 0 0 0 0 0 0 0 0 0 0 0 -0 -0 -0 0 0 0 0 0 0 0
0 0 0 0 0 0 0 0 0 0 0 0 0 0 0 0 0 0 0 0 0 0 0 0 0 0 0 0 0 0 0 0 0 0 0 0 0 0 0 0 0 0 -0 0 -0 0 0
0 0 0 0 0 0 0 0 0 0 0 0 0 0 0 0 0 0 0 0 0 0 0 0 0 0 0 0 0 0 0 0 0 0 0 0 0 0 -0 -0 -0 0 -0 0 0 0 0
0 0 0 0 0 0 0 0 -0 0 0 0 0 0 0 0 0 0 0 0 0 0 0 0 0 0 0 0 0 0 0 0 0 0 0 0 0 0 -0 -0 -0 -0 -0 0 0 0 0
0 0 0 0 0 0 0 -0 -0 -0 -0 -0 -0 -0 0 0 0 0 0 0 0 0 0 0 0 0 0 0 0 0 0 0 0 0 0 0 0 -0 0 0 0 0 -0 0 -0 0 0
0 0 0 0 0 0 0 0 -0 -0 -0 -0 -0 -0 -0 0 0 0 0 0 0 0 0 0 -0 0 0 0 0 0 0 0 0 0 0 0 -0 0 -0 0 -0 0 0 -0 0 -0 -0
0 0 0 0 0 0 0 0 0 0 -0 -0 -0 -0 0 -0 0 0 0 0 0 0 0 0 -0 0 0 0 0 0 0 0 0 0 0 -0 -0 -0 0 0 0 -0 0 0 0 0 -0
0 0 0 0 0 0 0 0 0 0 0 -0 -0 -0 0 -0 -0 0 0 0 0 0 0 0 0 0 0 0 0 0 0 0 0 0 0 0 0 0 0 -0 0 0 0 -0 0 -0 0
0 0 0 0 0 0 0 0 0 0 0 0 0 0 0 -0 -0 0 0 0 0 0 0 0 0 0 0 0 0 0 0 0 0 0 0 0 0 0 0 0 0 -0 0 -0 0 0 0
0 0 0 0 0 0 0 0 0 0 0 0 0 0 0 -0 -0 0 0 0 0 0 0 0 0 0 0 0 0 0 0 0 0 0 0 0 0 -0 0 0 -0 0 0 0 0 -0 -0
0 0 0 0 0 0 0 0 0 0 0 0 0 0 0 0 -0 0 0 0 0 0 0 0 0 0 0 0 0 0 0 0 0 0 0 0 0 0 0 0 -0 0 0 -0 -0 -0 -0
0 0 0 0 0 0 0 0 0 0 0 0 0 0 0 -0 0 0 0 0 0 0 0 0 0 0 0 0 0 0 0 0 0 0 0 0 0 0 0 0 0 -0 0 0 -0 -0 -0
0 0 0 0 0 0 0 0 0 0 0 0 0 0 0 0 0 0 0 0 0 0 0 0 0 0 0 0 0 0 0 0 0 0 0 -0 0 0 0 0 0 0 -0 0 0 0 0
0 0 0 0 0 0 0 0 0 0 0 0 0 0 0 0 0 0 0 0 0 0 0 0 0 0 0 0 0 0 0 0 0 0 0 -0 0 0 0 0 0 0 0 0 0 0 -0
0 0 0 0 0 0 0 0 0 0 0 0 0 0 0 0 0 0 0 0 0 0 0 0 0 0 0 0 0 0 0 0 0 0 0 0 0 0 0 0 0 -0 0 -0 0 0 -0
0 0 0 0 0 0 0 0 0 0 0 0 0 0 0 0 0 0 0 0 0 0 0 0 0 0 0 0 0 0 0 0 0 0 0 0 0 0 0 0 0 0 -0 0 -0 0 0
0 0 0 0 0 0 0 0 0 0 0 0 0 0 0 0 0 0 0 0 0 0 0 0 0 0 0 0 0 0 0 0 0 0 0 0 0 0 0 0 0 0 0 0 0 0 0
0 0 0 0 0 0 0 0 0 0 0 0 0 0 0 0 0 0 0 0 0 0 0 0 0 0 0 0 0 0 0 0 0 0 0 0 0 0 0 0 0 0 0 0 -0 0 0
0 0 0 0 0 0 0 0 0 0 0 0 0 0 0 0 0 0 0 0 0 0 0 0 0 0 0 0 0 0 0 0 0 0 0 0 0 0 0 0 0 0 0 0 0 0 -0
0 0 0 0 0 0 0 0 0 0 -0 0 0 0 0 0 -0 -0 0 0 0 0 0 0 -0 0 0 0 0 0 0 0 0 0 0 0 0 0 0 0 0 0 0 0 0 0 0
0 0 0 0 0 0 0 0 0 0 0 0 0 0 0 0 -0 0 0 0 -0 -0 -0 0 0 0 0 0 0 0 0 0 0 0 0 0 1 0 0 0 0 0 0 0 0 0 0
0 0 0 -0 0 -0 0 0 0 0 0 0 0 0 0 0 -0 0 0 -0 -0 -0 -0 0 0 0 0 0 0 0 0 0 0 0 0 0 0 1 0 0 0 0 0 0 0 0 0
0 0 0 0 0 -0 -0 -0 0 0 0 0 0 -0 -0 0 0 0 0 0 0 -0 -0 0 -0 -0 0 0 0 1 0 0 0 0 0 0 0 0 0 0 0 0 0 0 0 0 0
0 0 0 0 0 -0 -0 0 0 0 0 0 0 0 0 0 -0 -0 -0 0 0 0 0 -0 0 0 0 1 0 0 0 0 0 0 0 0 0 0 0 0 0 0 0 0 0 0 0
0 0 0 0 0 0 -0 0 -0 0 0 0 0 0 0 -0 -0 -0 -0 -0 0 -0 -0 -0 0 0 0 0 0 0 0 0 0 0 0 0 0 0 0 0 0 0 0 0 0 0 0
Wind_Speed_500mb
34 35 35 36 36 37 34 38 43 45 47 49 49 51 51 51 52 50 50 49 48 48 45 44 38 35 31 29 46 32 18 7 17 52 61 65 66 63 52 53 46 35 36 50 45 38 33
24 26 29 32 35 39 44 39 40 41 43 45 47 48 48 51 50 50 49 49 49 47 46 45 40 35 31 49 35 34 44 32 14 35 52 59 55 65 56 55 42 51 51 40 38 37 33
25 28 28 28 32 36 37 41 47 49 46 42 42 46 47 47 49 50 49 48 45 46 46 45 40 35 33 68 19 21 33 44 47 39 39 56 63 53 57 49 50 48 35 38 38 37 30
33 32 31 31 31 32 34 39 41 39 38 47 47 41 44 47 39 40 48 47 42 42 43 41 39 31 41 44 40 57 35 28 30 42 52 40 55 70 54 47 48 37 42 38 39 36 33
37 36 34 31 33 36 38 38 36 37 42 39 40 41 41 40 48 39 43 43 38 41 40 35 32 30 51 27 57 64 56 65 52 34 47 47 44 69 52 39 40 37 33 41 37 28 31
40 39 39 40 39 38 36 36 39 37 34 40 42 40 43 46 45 45 41 31 30 35 33 21 26 17 49 48 47 42 53 64 52 43 39 46 43 39 38 38 40 37 43 34 35 29 26
40 43 43 40 40 41 43 43 41 37 36 33 36 38 41 49 46 41 38 26 17 17 49 44 31 49 15 25 21 26 41 51 57 54 46 60 35 51 67 56 49 45 37 34 22 17 26
38 39 40 42 46 46 42 40 42 43 39 34 37 35 34 39 41 38 31 20 17 11 24 64 72 67 56 18 20 45 35 48 59 53 53 43 54 56 55 54 52 47 41 31 29 25 18
42 41 42 45 46 47 48 48 44 40 41 41 33 32 29 34 35 41 33 34 21 15 22 53 75 81 78 62 58 44 60 63 51 58 61 61 53 56 54 54 50 46 42 34 35 24 18
44 42 42 44 49 49 47 48 47 48 43 38 37 31 24 27 23 19 28 26 19 9 15 38 46 66 77 68 69 70 69 70 42 61 59 57 55 53 59 54 50 44 39 37 29 26 26
52 51 50 51 54 55 55 53 50 47 46 41 34 29 23 20 26 11 3 7 11 9 16 16 66 18 58 84 16 80 68 76 59 46 54 61 52 56 54 58 52 41 36 34 28 30 36
53 55 53 52 53 55 57 60 58 51 46 42 37 27 26 21 29 34 12 12 10 18 29 17 28 33 44 74 78 25 95 75 63 53 56 63 70 48 55 54 40 40 34 34 22 21 31
55 56 55 54 58 61 63 58 54 48 47 42 39 30 35 25 28 24 28 22 16 30 34 28 36 37 51 49 69 54 67 62 56 58 57 56 66 54 45 41 45 46 28 23 25 27 28
54 55 53 52 58 63 64 58 57 50 45 43 37 36 35 33 26 26 16 27 33 47 65 7 43 42 57 52 64 67 62 58 68 61 36 45 54 60 47 50 47 43 38 26 30 28 29
55 54 53 51 58 61 62 59 62 52 37 34 33 35 30 33 30 26 18 28 42 49 46 63 28 39 51 57 37 63 61 69 69 67 56 48 56 53 52 45 49 38 41 41 43 38 26
56 54 54 54 58 60 58 59 56 41 34 29 33 28 34 32 35 29 11 45 55 51 52 44 69 38 44 58 48 68 61 67 70 73 56 33 38 50 57 41 51 47 36 38 29 37 34
54 52 55 54 58 57 55 52 48 36 27 26 28 8 12 37 40 24 13 41 56 70 69 31 36 41 51 51 58 49 57 40 70 72 66 60 36 46 51 51 52 42 42 33 31 28 25
50 51 55 54 60 58 51 48 41 36 20 23 16 7 17 44 21 11 26 57 54 63 57 36 38 47 47 48 52 60 64 65 55 66 74 65 29 35 58 49 51 51 52 44 21 37 24
52 48 54 54 59 55 46 44 36 27 4 25 9 15 12 33 17 27 37 54 59 56 59 52 34 36 45 40 32 55 58 61 41 63 69 53 35 35 45 40 48 54 49 47 38 29 30
54 49 55 54 55 50 44 38 31 16 14 21 5 5 13 26 33 22 37 42 45 52 63 41 55 41 43 48 44 30 56 49 48 39 64 50 41 52 41 53 44 51 51 50 46 33 32
52 51 57 53 55 52 44 35 29 17 12 13 16 10 17 6 19 28 33 34 39 46 52 52 43 49 47 36 37 43 28 52 39 40 41 53 52 52 52 42 51 45 54 55 55 48 42
54 54 54 56 51 55 54 24 24 19 17 25 6 8 8 23 22 27 20 35 45 41 33 47 44 41 38 37 39 35 25 38 44 41 48 45 47 47 52 51 47 54 52 52 54 51 46
53 52 55 59 57 52 34 22 19 18 26 23 18 11 10 12 6 17 21 30 20 23 37 43 43 44 48 47 30 61 45 47 32 42 43 47 40 46 46 49 52 46 54 55 49 45 43
49 52 56 65 61 41 35 28 22 26 34 29 15 10 7 13 12 20 21 19 29 36 38 40 62 47 51 61 57 61 57 43 31 28 37 45 45 36 39 45 54 42 45 44 48 43 42
53 52 56 58 54 44 37 31 28 27 14 42 29 12 9 12 23 24 20 20 29 36 31 34 50 52 44 23 31 28 28 33 34 32 30 40 38 30 31 37 33 50 34 45 44 43 43
48 52 54 56 59 40 41 38 29 19 11 12 23 13 14 10 7 19 23 29 24 25 23 35 56 34 23 12 24 9 16 32 30 24 33 26 26 28 28 36 49 38 45 31 37 42 43
42 50 52 57 52 45 39 37 33 17 9 9 16 16 17 15 25 17 17 10 15 25 20 24 39 46 26 23 14 12 19 37 35 49 43 33 35 39 30 28 32 34 31 33 40 30 42
41 47 50 56 58 52 44 37 33 13 4 10 17 15 14 15 43 32 19 15 17 16 8 19 14 24 18 35 23 11 10 21 34 41 54 40 37 31 34 31 34 41 28 47 16 4 39
42 48 52 57 53 53 44 35 24 12 7 11 21 18 20 24 39 46 46 37 40 32 21 21 13 12 8 14 24 23 14 13 14 30 33 41 37 30 33 28 11 28 35 29 26 21 17
Wind_Direction_500mb
294 290 291 290 290 290 295 299 300 299 293 286 281 278 277 276 274 272 269 268 269 273 276 278 280 283 282 254 243 265 271 189 205 211 213 220 220 222 229 238 247 240 249 254 269 255 265
320 317 307 294 297 289 281 285 288 294 296 298 295 286 280 277 277 278 275 274 273 272 272 271 272 272 276 258 257 248 250 244 212 201 217 223 226 227 238 242 240 237 242 258 263 245 258
305 305 306 311 301 296 296 288 282 279 284 291 294 297 294 281 274 276 277 277 278 276 272 269 272 272 258 246 248 244 236 230 228 225 227 227 231 231 235 249 246 252 258 260 255 254 247
307 302 302 303 305 307 306 299 295 291 286 279 282 291 295 296 286 276 270 269 272 272 271 270 267 268 253 256 256 235 223 223 228 233 232 233 226 238 239 245 253 248 246 253 246 216 229
358 356 353 340 319 303 301 304 308 307 294 287 279 279 287 294 296 286 269 268 269 268 267 261 259 233 261 267 231 236 229 236 237 239 221 224 227 229 237 240 234 224 243 242 255 173 228
11 10 5 3 0 357 351 333 307 296 301 308 286 286 280 281 290 296 284 276 268 263 259 247 231 236 253 240 237 243 229 221 220 213 213 215 221 218 225 222 230 224 228 231 261 212 211
352 352 352 352 350 345 341 341 341 331 307 296 301 299 291 279 277 290 299 315 260 237 209 210 204 210 264 220 216 216 212 206 207 211 212 205 210 209 212 219 229 246 257 253 243 247 250
349 347 346 343 339 337 334 329 327 330 331 308 289 299 297 291 277 276 284 247 289 297 277 237 245 238 243 234 234 224 196 194 199 208 206 205 221 215 217 222 231 241 252 255 262 259 268
348 344 343 341 339 339 336 329 322 318 315 320 298 291 304 289 280 273 265 237 261 287 259 253 235 234 225 229 233 230 199 199 201 210 204 216 215 220 212 224 222 228 242 244 260 271 243
344 338 332 329 327 328 327 330 324 314 309 306 310 288 299 299 284 283 249 256 234 250 268 252 213 237 221 217 236 223 208 203 216 215 212 219 223 210 225 218 223 228 227 247 269 275 266
344 340 335 331 330 328 324 321 316 314 308 303 297 286 272 258 273 271 157 208 222 213 259 244 204 197 201 197 176 204 207 207 218 205 211 220 219 217 213 223 219 233 235 239 229 252 270
339 338 334 333 331 327 324 319 311 304 299 292 293 284 256 269 253 238 281 265 232 221 233 231 145 188 192 200 215 200 200 208 217 223 220 229 214 223 219 216 218 225 227 254 265 259 257
336 337 334 332 332 330 328 323 320 303 296 289 282 272 238 242 252 238 243 225 209 224 213 230 185 192 200 193 200 223 189 199 205 209 217 212 228 211 224 213 213 220 210 229 230 233 248
334 335 333 331 331 328 326 321 319 312 291 289 271 258 245 239 244 242 251 214 229 222 224 244 183 199 206 190 201 209 187 202 208 207 204 209 213 214 203 211 209 205 211 224 219 234 247
333 334 333 331 329 329 327 322 316 306 290 279 263 251 243 231 222 221 231 224 220 231 215 245 193 205 208 198 195 206 203 206 202 205 221 202 217 203 203 201 220 189 214 225 253 284 289
333 335 335 332 332 330 328 327 324 302 288 267 240 237 236 220 210 192 241 230 239 255 278 262 238 228 215 208 203 197 199 211 211 209 215 211 211 218 198 205 218 220 200 217 229 246 261
334 338 337 335 338 333 329 330 328 314 286 264 212 201 231 200 190 196 227 231 237 259 268 333 314 294 229 218 204 202 210 207 207 202 216 230 212 201 187 197 206 203 224 204 244 224 237
335 338 339 336 338 335 330 334 332 322 286 220 152 222 176 182 189 211 228 228 250 258 261 294 302 290 284 257 216 220 210 211 202 207 204 215 215 226 200 200 209 214 210 207 216 222 249
341 338 340 338 341 340 337 337 338 342 292 184 188 237 183 188 221 228 247 247 240 264 258 261 273 293 325 301 291 220 231 219 192 204 199 205 212 218 199 202 202 222 210 217 219 243 235
343 343 343 340 337 338 338 338 339 334 242 219 203 251 202 213 234 269 270 268 250 251 254 265 277 282 287 278 265 271 212 223 222 207 203 200 211 211 213 199 192 208 222 205 217 218 230
348 344 344 340 341 338 330 328 331 303 259 225 250 253 274 245 240 247 254 281 285 237 254 246 248 259 266 283 257 249 233 220 202 206 208 191 218 208 227 204 200 205 214 216 213 220 223
350 346 344 347 342 339 328 314 324 278 220 226 266 247 305 285 260 253 265 261 253 268 221 253 234 245 271 281 272 304 293 256 198 207 205 188 214 215 217 228 203 204 211 222 223 222 223
355 352 351 348 347 338 343 330 321 307 222 234 240 242 277 278 274 270 234 267 294 304 285 241 261 241 244 254 342 313 320 306 302 210 198 186 209 212 220 214 227 223 207 212 221 224 225
3 358 357 359 358 359 356 346 340 327 255 221 224 251 242 273 246 251 284 281 273 271 278 255 231 252 242 259 300 287 278 276 266 254 216 194 202 200 212 221 217 226 220 218 219 222 220
2 -0 360 0 3 1 358 353 347 346 319 218 241 241 259 275 294 284 289 276 293 279 249 241 250 242 246 200 266 276 261 243 234 230 208 207 195 208 213 207 216 220 221 224 214 224 216
358 3 4 2 1 0 357 356 350 353 356 224 253 286 280 284 287 318 315 314 303 271 257 244 237 240 267 237 232 256 235 206 198 195 204 212 213 221 205 212 209 210 201 213 223 226 215
356 1 5 7 3 356 354 347 350 342 342 291 275 253 270 282 290 312 312 301 287 308 280 268 221 226 234 217 190 250 253 242 204 196 186 198 207 212 220 212 224 208 182 179 215 218 207
357 2 2 359 1 355 353 348 348 342 308 299 306 297 260 282 290 281 274 239 289 293 315 333 234 186 229 223 179 190 269 253 256 217 186 199 199 206 210 201 220 197 202 181 194 169 179
3 359 357 355 356 356 1 1 2 352 326 300 313 330 309 273 272 284 279 275 261 280 278 315 306 308 292 251 210 194 220 278 291 247 219 206 208 204 213 207 207 198 192 170 185 192 190
Wind_Speed_850mb
34 35 35 36 36 37 34 38 43 45 47 49 49 51 51 51 52 50 50 49 48 48 45 44 38 35 31 29 46 32 18 7 17 52 61 65 66 63 52 53 46 35 36 50 45 38 33
24 26 29 32 35 39 44 39 40 41 43 45 47 48 48 51 50 50 49 49 49 47 46 45 40 35 31 49 35 34 44 32 14 35 52 59 55 65 56 55 42 51 51 40 38 37 33
25 28 28 28 32 36 37 41 47 49 46 42 42 46 47 47 49 50 49 48 45 46 46 45 40 35 33 68 19 21 33 44 47 39 39 56 63 53 57 49 50 48 35 38 38 37 30
33 32 31 31 31 32 34 39 41 39 38 47 47 41 44 47 39 40 48 47 42 42 43 41 39 31 41 44 40 57 35 28 30 42 52 40 55 70 54 47 48 37 42 38 39 36 33
37 36 34 31 33 36 38 38 36 37 42 39 40 41 41 40 48 39 43 43 38 41 40 35 32 30 51 27 57 64 56 65 52 34 47 47 44 69 52 39 40 37 33 41 37 28 31
40 39 39 40 39 38 36 36 39 37 34 40 42 40 43 46 45 45 41 31 30 35 33 21 26 17 49 48 47 42 53 64 52 43 39 46 43 39 38 38 40 37 43 34 35 29 26
40 43 43 40 40 41 43 43 41 37 36 33 36 38 41 49 46 41 38 26 17 17 49 44 31 49 15 25 21 26 41 51 57 54 46 60 35 51 67 56 49 45 37 34 22 17 26
38 39 40 42 46 46 42 40 42 43 39 34 37 35 34 39 41 38 31 20 17 11 24 64 72 67 56 18 20 45 35 48 59 53 53 43 54 56 55 54 52 47 41 31 29 25 18
42 41 42 45 46 47 48 48 44 40 41 41 33 32 29 34 35 41 33 34 21 15 22 53 75 81 78 62 58 44 60 63 51 58 61 61 53 56 54 54 50 46 42 34 35 24 18
44 42 42 44 49 49 47 48 47 48 43 38 37 31 24 27 23 19 28 26 19 9 15 38 46 66 77 68 69 70 69 70 42 61 59 57 55 53 59 54 50 44 39 37 29 26 26
52 51 50 51 54 55 55 53 50 47 46 41 34 29 23 20 26 11 3 7 11 9 16 16 66 18 58 84 16 80 68 76 59 46 54 61 52 56 54 58 52 41 36 34 28 30 36
53 55 53 52 53 55 57 60 58 51 46 42 37 27 26 21 29 34 12 12 10 18 29 17 28 33 44 74 78 25 95 75 63 53 56 63 70 48 55 54 40 40 34 34 22 21 31
55 56 55 54 58 61 63 58 54 48 47 42 39 30 35 25 28 24 28 22 16 30 34 28 36 37 51 49 69 54 67 62 56 58 57 56 66 54 45 41 45 46 28 23 25 27 28
54 55 53 52 58 63 64 58 57 50 45 43 37 36 35 33 26 26 16 27 33 47 65 7 43 42 57 52 64 67 62 58 68 61 36 45 54 60 47 50 47 43 38 26 30 28 29
55 54 53 51 58 61 62 59 62 52 37 34 33 35 30 33 30 26 18 28 42 49 46 63 28 39 51 57 37 63 61 69 69 67 56 48 56 53 52 45 49 38 41 41 43 38 26
56 54 54 54 58 60 58 59 56 41 34 29 33 28 34 32 35 29 11 45 55 51 52 44 69 38 44 58 48 68 61 67 70 73 56 33 38 50 57 41 51 47 36 38 29 37 34
54 52 55 54 58 57 55 52 48 36 27 26 28 8 12 37 40 24 13 41 56 70 69 31 36 41 51 51 58 49 57 40 70 72 66 60 36 46 51 51 52 42 42 33 31 28 25
50 51 55 54 60 58 51 48 41 36 20 23 16 7 17 44 21 11 26 57 54 63 57 36 38 47 47 48 52 60 64 65 55 66 74 65 29 35 58 49 51 51 52 44 21 37 24
52 48 54 54 59 55 46 44 36 27 4 25 9 15 12 33 17 27 37 54 59 56 59 52 34 36 45 40 32 55 58 61 41 63 69 53 35 35 45 40 48 54 49 47 38 29 30
54 49 55 54 55 50 44 38 31 16 14 21 5 5 13 26 33 22 37 42 45 52 63 41 55 41 43 48 44 30 56 49 48 39 64 50 41 52 41 53 44 51 51 50 46 33 32
52 51 57 53 55 52 44 35 29 17 12 13 16 10 17 6 19 28 33 34 39 46 52 52 43 49 47 36 37 43 28 52 39 40 41 53 52 52 52 42 51 45 54 55 55 48 42
54 54 54 56 51 55 54 24 24 19 17 25 6 8 8 23 22 27 20 35 45 41 33 47 44 41 38 37 39 35 25 38 44 41 48 45 47 47 52 51 47 54 52 52 54 51 46
53 52 55 59 57 52 34 22 19 18 26 23 18 11 10 12 6 17 21 30 20 23 37 43 43 44 48 47 30 61 45 47 32 42 43 47 40 46 46 49 52 46 54 55 49 45 43
49 52 56 65 61 41 35 28 22 26 34 29 15 10 7 13 12 20 21 19 29 36 38 40 62 47 51 61 57 61 57 43 31 28 37 45 45 36 39 45 54 42 45 44 48 43 42
53 52 56 58 54 44 37 31 28 27 14 42 29 12 9 12 23 24 20 20 29 36 31 34 50 52 44 23 31 28 28 33 34 32 30 40 38 30 31 37 33 50 34 45 44 43 43
48 52 54 56 59 40 41 38 29 19 11 12 23 13 14 10 7 19 23 29 24 25 23 35 56 34 23 12 24 9 16 32 30 24 33 26 26 28 28 36 49 38 45 31 37 42 43
42 50 52 57 52 45 39 37 33 17 9 9 16 16 17 15 25 17 17 10 15 25 20 24 39 46 26 23 14 12 19 37 35 49 43 33 35 39 30 28 32 34 31 33 40 30 42
41 47 50 56 58 52 44 37 33 13 4 10 17 15 14 15 43 32 19 15 17 16 8 19 14 24 18 35 23 11 10 21 34 41 54 40 37 31 34 31 34 41 28 47 16 4 39
42 48 52 57 53 53 44 35 24 12 7 11 21 18 20 24 39 46 46 37 40 32 21 21 13 12 8 14 24 23 14 13 14 30 33 41 37 30 33 28 11 28 35 29 26 21 17
Wind_Direction_850mb
294 290 291 290 290 290 295 299 300 299 293 286 281 278 277 276 274 272 269 268 269 273 276 278 280 283 282 254 243 265 271 189 205 211 213 220 220 222 229 238 247 240 249 254 269 255 265
320 317 307 294 297 289 281 285 288 294 296 298 295 286 280 277 277 278 275 274 273 272 272 271 272 272 276 258 257 248 250 244 212 201 217 223 226 227 238 242 240 237 242 258 263 245 258
305 305 306 311 301 296 296 288 282 279 284 291 294 297 294 281 274 276 277 277 278 276 272 269 272 272 258 246 248 244 236 230 228 225 227 227 231 231 235 249 246 252 258 260 255 254 247
307 302 302 303 305 307 306 299 295 291 286 279 282 291 295 296 286 276 270 269 272 272 271 270 267 268 253 256 256 235 223 223 228 233 232 233 226 238 239 245 253 248 246 253 246 216 229
358 356 353 340 319 303 301 304 308 307 294 287 279 279 287 294 296 286 269 268 269 268 267 261 259 233 261 267 231 236 229 236 237 239 221 224 227 229 237 240 234 224 243 242 255 173 228
11 10 5 3 0 357 351 333 307 296 301 308 286 286 280 281 290 296 284 276 268 263 259 247 231 236 253 240 237 243 229 221 220 213 213 215 221 218 225 222 230 224 228 231 261 212 211
352 352 352 352 350 345 341 341 341 331 307 296 301 299 291 279 277 290 299 315 260 237 209 210 204 210 264 220 216 216 212 206 207 211 212 205 210 209 212 219 229 246 257 253 243 247 250
349 347 346 343 339 337 334 329 327 330 331 308 289 299 297 291 277 276 284 247 289 297 277 237 245 238 243 234 234 224 196 194 199 208 206 205 221 215 217 222 231 241 252 255 262 259 268
348 344 343 341 339 339 336 329 322 318 315 320 298 291 304 289 280 273 265 237 261 287 259 253 235 234 225 229 233 230 199 199 201 210 204 216 215 220 212 224 222 228 242 244 260 271 243
344 338 332 329 327 328 327 330 324 314 309 306 310 288 299 299 284 283 249 256 234 250 268 252 213 237 221 217 236 223 208 203 216 215 212 219 223 210 225 218 223 228 227 247 269 275 266
344 340 335 331 330 328 324 321 316 314 308 303 297 286 272 258 273 271 157 208 222 213 259 244 204 197 201 197 176 204 207 207 218 205 211 220 219 217 213 223 219 233 235 239 229 252 270
339 338 334 333 331 327 324 319 311 304 299 292 293 284 256 269 253 238 281 265 232 221 233 231 145 188 192 200 215 200 200 208 217 223 220 229 214 223 219 216 218 225 227 254 265 259 257
336 337 334 332 332 330 328 323 320 303 296 289 282 272 238 242 252 238 243 225 209 224 213 230 185 192 200 193 200 223 189 199 205 209 217 212 228 211 224 213 213 220 210 229 230 233 248
334 335 333 331 331 328 326 321 319 312 291 289 271 258 245 239 244 242 251 214 229 222 224 244 183 199 206 190 201 209 187 202 208 207 204 209 213 214 203 211 209 205 211 224 219 234 247
333 334 333 331 329 329 327 322 316 306 290 279 263 251 243 231 222 221 231 224 220 231 215 245 193 205 208 198 195 206 203 206 202 205 221 202 217 203 203 201 220 189 214 225 253 284 289
333 335 335 332 332 330 328 327 324 302 288 267 240 237 236 220 210 192 241 230 239 255 278 262 238 228 215 208 203 197 199 211 211 209 215 211 211 218 198 205 218 220 200 217 229 246 261
334 338 337 335 338 333 329 330 328 314 286 264 212 201 231 200 190 196 227 231 237 259 268 333 314 294 229 218 204 202 210 207 207 202 216 230 212 201 187 197 206 203 224 204 244 224 237
335 338 339 336 338 335 330 334 332 322 286 220 152 222 176 182 189 211 228 228 250 258 261 294 302 290 284 257 216 220 210 211 202 207 204 215 215 226 200 200 209 214 210 207 216 222 249
341 338 340 338 341 340 337 337 338 342 292 184 188 237 183 188 221 228 247 247 240 264 258 261 273 293 325 301 291 220 231 219 192 204 199 205 212 218 199 202 202 222 210 217 219 243 235
343 343 343 340 337 338 338 338 339 334 242 219 203 251 202 213 234 269 270 268 250 251 254 265 277 282 287 278 265 271 212 223 222 207 203 200 211 211 213 199 192 208 222 205 217 218 230
348 344 344 340 341 338 330 328 331 303 259 225 250 253 274 245 240 247 254 281 285 237 254 246 248 259 266 283 257 249 233 220 202 206 208 191 218 208 227 204 200 205 214 216 213 220 223
350 346 344 347 342 339 328 314 324 278 220 226 266 247 305 285 260 253 265 261 253 268 221 253 234 245 271 281 272 304 293 256 198 207 205 188 214 215 217 228 203 204 211 222 223 222 223
355 352 351 348 347 338 343 330 321 307 222 234 240 242 277 278 274 270 234 267 294 304 285 241 261 241 244 254 342 313 320 306 302 210 198 186 209 212 220 214 227 223 207 212 221 224 225
3 358 357 359 358 359 356 346 340 327 255 221 224 251 242 273 246 251 284 281 273 271 278 255 231 252 242 259 300 287 278 276 266 254 216 194 202 200 212 221 217 226 220 218 219 222 220
2 -0 360 0 3 1 358 353 347 346 319 218 241 241 259 275 294 284 289 276 293 279 249 241 250 242 246 200 266 276 261 243 234 230 208 207 195 208 213 207 216 220 221 224 214 224 216
358 3 4 2 1 0 357 356 350 353 356 224 253 286 280 284 287 318 315 314 303 271 257 244 237 240 267 237 232 256 235 206 198 195 204 212 213 221 205 212 209 210 201 213 223 226 215
356 1 5 7 3 356 354 347 350 342 342 291 275 253 270 282 290 312 312 301 287 308 280 268 221 226 234 217 190 250 253 242 204 196 186 198 207 212 220 212 224 208 182 179 215 218 207
357 2 2 359 1 355 353 348 348 342 308 299 306 297 260 282 290 281 274 239 289 293 315 333 234 186 229 223 179 190 269 253 256 217 186 199 199 206 210 201 220 197 202 181 194 169 179
3 359 357 355 356 356 1 1 2 352 326 300 313 330 309 273 272 284 279 275 261 280 278 315 306 308 292 251 210 194 220 278 291 247 219 206 208 204 213 207 207 198 192 170 185 192 190